Time,TemperatureF,DewpointF,PressureIn,WindDirection,WindDirectionDegrees,WindSpeedMPH,WindSpeedGustMPH,Humidity,HourlyPrecipIn,Conditions,Clouds,dailyrainin,SolarRadiationWatts/m^2,SoftwareType,DateUTC
2013-03-16 00:03:00,66.9,51.2,29.88,SSW,196,12.0,19.0,57,0.00,,---,0.00,0.00,VWS V14.00,2013-03-16 05:03:00,
2013-03-16 00:16:00,66.9,51.2,29.88,South,188,7.0,15.0,57,0.00,,---,0.00,0.00,VWS V14.00,2013-03-16 05:16:00,
2013-03-16 00:24:00,66.6,51.4,29.88,SSW,202,16.0,16.0,58,0.00,,---,0.00,0.00,VWS V14.00,2013-03-16 05:24:00,
2013-03-16 00:32:00,66.7,51.5,29.88,SSW,197,7.0,16.0,58,0.00,,---,0.00,0.00,VWS V14.00,2013-03-16 05:32:00,
2013-03-16 00:40:00,66.4,51.7,29.87,SSW,192,11.0,14.0,59,0.00,,---,0.00,0.00,VWS V14.00,2013-03-16 05:40:00,
2013-03-16 00:48:00,66.2,51.5,29.87,South,186,9.0,16.0,59,0.00,,---,0.00,0.00,VWS V14.00,2013-03-16 05:48:00,
2013-03-16 00:56:00,66.0,51.7,29.87,SSW,193,8.0,16.0,60,0.00,,---,0.00,0.00,VWS V14.00,2013-03-16 05:56:00,
2013-03-16 01:03:00,65.7,51.9,29.87,South,184,11.0,16.0,61,0.00,,---,0.00,0.00,VWS V14.00,2013-03-16 06:03:00,
2013-03-16 01:12:00,65.3,51.5,29.87,South,182,9.0,16.0,61,0.00,,---,0.00,0.00,VWS V14.00,2013-03-16 06:12:00,
2013-03-16 01:20:00,65.3,51.5,29.86,SSW,203,10.0,18.0,61,0.00,,---,0.00,0.00,VWS V14.00,2013-03-16 06:20:00,
2013-03-16 01:28:00,65.2,51.9,29.86,SW,215,9.0,20.0,62,0.00,,---,0.00,0.00,VWS V14.00,2013-03-16 06:28:00,
2013-03-16 01:33:00,65.0,51.2,29.86,South,179,14.0,20.0,61,0.00,,---,0.00,0.00,VWS V14.00,2013-03-16 06:33:00,
2013-03-16 01:40:00,64.9,51.6,29.86,South,173,7.0,15.0,62,0.00,,---,0.00,0.00,VWS V14.00,2013-03-16 06:40:00,
2013-03-16 01:48:00,64.7,51.4,29.86,South,180,12.0,16.0,62,0.00,,---,0.00,0.00,VWS V14.00,2013-03-16 06:48:00,
2013-03-16 02:00:00,64.2,50.9,29.86,South,176,14.0,17.0,62,0.00,,---,0.00,0.00,VWS V14.00,2013-03-16 07:00:00,
2013-03-16 02:09:00,64.0,51.2,29.86,South,173,10.0,14.0,63,0.00,,---,0.00,0.00,VWS V14.00,2013-03-16 07:09:00,
2013-03-16 02:17:00,63.6,50.8,29.86,South,189,17.0,17.0,63,0.00,,---,0.00,0.00,VWS V14.00,2013-03-16 07:17:00,
2013-03-16 02:25:00,63.4,50.6,29.86,South,178,10.0,21.0,63,0.00,,---,0.00,0.00,VWS V14.00,2013-03-16 07:25:00,
2013-03-16 02:33:00,63.0,50.7,29.86,South,179,9.0,21.0,64,0.00,,---,0.00,0.00,VWS V14.00,2013-03-16 07:33:00,
2013-03-16 02:41:00,62.7,50.4,29.86,South,186,13.0,13.0,64,0.00,,---,0.00,0.00,VWS V14.00,2013-03-16 07:41:00,
2013-03-16 02:49:00,62.6,50.3,29.86,South,171,10.0,20.0,64,0.00,,---,0.00,0.00,VWS V14.00,2013-03-16 07:49:00,
2013-03-16 02:57:00,62.3,50.4,29.86,SW,215,14.0,20.0,65,0.00,,---,0.00,0.00,VWS V14.00,2013-03-16 07:57:00,
2013-03-16 03:03:00,62.1,50.6,29.86,SSW,196,6.0,20.0,66,0.00,,---,0.00,0.00,VWS V14.00,2013-03-16 08:03:00,
2013-03-16 03:09:00,61.8,50.7,29.86,South,180,13.0,17.0,67,0.00,,---,0.00,0.00,VWS V14.00,2013-03-16 08:09:00,
2013-03-16 03:17:00,61.6,51.0,29.86,SSW,198,14.0,17.0,68,0.00,,---,0.00,0.00,VWS V14.00,2013-03-16 08:17:00,
2013-03-16 03:25:00,61.4,51.2,29.85,SSW,192,6.0,18.0,69,0.00,,---,0.00,0.00,VWS V14.00,2013-03-16 08:25:00,
2013-03-16 03:33:00,61.2,51.3,29.85,SSW,200,6.0,18.0,70,0.00,,---,0.00,0.00,VWS V14.00,2013-03-16 08:33:00,
2013-03-16 03:41:00,60.9,51.5,29.85,South,180,6.0,12.0,71,0.00,,---,0.00,0.00,VWS V14.00,2013-03-16 08:41:00,
2013-03-16 03:49:00,60.7,51.6,29.85,South,182,11.0,13.0,72,0.00,,---,0.00,0.00,VWS V14.00,2013-03-16 08:49:00,
2013-03-16 03:57:00,60.5,51.8,29.85,South,179,7.0,13.0,73,0.00,,---,0.00,0.00,VWS V14.00,2013-03-16 08:57:00,
2013-03-16 04:03:00,60.4,52.1,29.85,South,181,7.0,17.0,74,0.00,,---,0.00,0.00,VWS V14.00,2013-03-16 09:03:00,
2013-03-16 04:09:00,60.4,52.5,29.85,SSW,209,11.0,11.0,75,0.00,,---,0.00,0.00,VWS V14.00,2013-03-16 09:09:00,
2013-03-16 04:18:00,60.4,52.8,29.84,South,182,6.0,16.0,76,0.00,,---,0.00,0.00,VWS V14.00,2013-03-16 09:18:00,
2013-03-16 04:26:00,60.3,53.1,29.84,South,182,7.0,16.0,77,0.00,,---,0.00,0.00,VWS V14.00,2013-03-16 09:26:00,
2013-03-16 04:33:00,60.1,53.2,29.84,South,190,10.0,16.0,78,0.00,,---,0.00,0.00,VWS V14.00,2013-03-16 09:33:00,
2013-03-16 04:42:00,59.9,53.4,29.84,SSW,194,6.0,10.0,79,0.00,,---,0.00,0.00,VWS V14.00,2013-03-16 09:42:00,
2013-03-16 04:50:00,59.9,53.7,29.84,SSW,206,9.0,18.0,80,0.00,,---,0.00,0.00,VWS V14.00,2013-03-16 09:50:00,
2013-03-16 04:58:00,59.9,53.7,29.84,SSW,197,8.0,19.0,80,0.00,,---,0.00,0.00,VWS V14.00,2013-03-16 09:58:00,
2013-03-16 05:03:00,59.8,54.0,29.84,South,188,4.0,19.0,81,0.00,,---,0.00,0.00,VWS V14.00,2013-03-16 10:03:00,
2013-03-16 05:10:00,59.5,54.0,29.84,South,187,13.0,13.0,82,0.00,,---,0.00,0.00,VWS V14.00,2013-03-16 10:10:00,
2013-03-16 05:18:00,59.8,54.0,29.84,South,175,6.0,15.0,81,0.00,,---,0.00,0.00,VWS V14.00,2013-03-16 10:18:00,
2013-03-16 05:26:00,59.5,54.0,29.84,SSW,205,3.0,15.0,82,0.00,,---,0.00,0.00,VWS V14.00,2013-03-16 10:26:00,
2013-03-16 05:33:00,59.4,54.2,29.85,SSW,199,3.0,15.0,83,0.00,,---,0.00,0.00,VWS V14.00,2013-03-16 10:33:00,
2013-03-16 05:38:00,59.4,54.2,29.85,South,186,6.0,11.0,83,0.00,,---,0.00,0.00,VWS V14.00,2013-03-16 10:38:00,
2013-03-16 05:46:00,59.3,54.5,29.85,South,173,11.0,14.0,84,0.00,,---,0.00,0.00,VWS V14.00,2013-03-16 10:46:00,
2013-03-16 05:54:00,59.1,54.3,29.85,SSW,202,5.0,14.0,84,0.00,,---,0.00,0.00,VWS V14.00,2013-03-16 10:54:00,
2013-03-16 06:02:00,59.1,54.3,29.85,South,191,7.0,14.0,84,0.00,,---,0.00,0.00,VWS V14.00,2013-03-16 11:02:00,
2013-03-16 06:11:00,58.9,54.4,29.85,South,182,5.0,12.0,85,0.00,,---,0.00,0.00,VWS V14.00,2013-03-16 11:11:00,
2013-03-16 06:19:00,58.9,54.4,29.85,SSW,196,6.0,12.0,85,0.00,,---,0.00,0.00,VWS V14.00,2013-03-16 11:19:00,
2013-03-16 06:27:00,58.8,54.3,29.85,SSW,193,4.0,12.0,85,0.00,,---,0.00,0.00,VWS V14.00,2013-03-16 11:27:00,
2013-03-16 06:33:00,58.7,54.5,29.85,South,175,8.0,12.0,86,0.00,,---,0.00,0.00,VWS V14.00,2013-03-16 11:33:00,
2013-03-16 06:39:00,58.7,54.5,29.85,South,175,5.0,10.0,86,0.00,,---,0.00,0.00,VWS V14.00,2013-03-16 11:39:00,
2013-03-16 06:47:00,58.6,54.4,29.85,SSW,195,4.0,11.0,86,0.00,,---,0.00,0.00,VWS V14.00,2013-03-16 11:47:00,
2013-03-16 06:55:00,58.4,54.5,29.85,SSW,193,3.0,11.0,87,0.00,,---,0.00,0.00,VWS V14.00,2013-03-16 11:55:00,
2013-03-16 07:03:00,58.5,54.7,29.85,SSW,194,7.0,11.0,87,0.00,,---,0.00,0.00,VWS V14.00,2013-03-16 12:03:00,
2013-03-16 07:11:00,58.4,54.5,29.85,South,180,12.0,12.0,87,0.00,,---,0.00,0.00,VWS V14.00,2013-03-16 12:11:00,
2013-03-16 07:19:00,58.2,54.4,29.86,SSW,198,4.0,14.0,87,0.00,,---,0.00,0.00,VWS V14.00,2013-03-16 12:19:00,
2013-03-16 07:27:00,58.3,54.5,29.86,SSW,197,5.0,14.0,87,0.00,,---,0.00,0.00,VWS V14.00,2013-03-16 12:27:00,
2013-03-16 07:33:00,58.2,54.7,29.86,South,188,3.0,14.0,88,0.00,,---,0.00,5.00,VWS V14.00,2013-03-16 12:33:00,
2013-03-16 07:39:00,58.0,54.5,29.86,South,187,6.0,8.0,88,0.00,,---,0.00,11.00,VWS V14.00,2013-03-16 12:39:00,
2013-03-16 07:47:00,58.2,54.7,29.86,SSE,163,6.0,11.0,88,0.00,,---,0.00,14.00,VWS V14.00,2013-03-16 12:47:00,
2013-03-16 07:55:00,58.5,55.0,29.86,South,184,9.0,12.0,88,0.00,,---,0.00,28.00,VWS V14.00,2013-03-16 12:55:00,
2013-03-16 08:03:00,58.7,54.8,29.86,SSW,198,3.0,14.0,87,0.00,,---,0.00,62.00,VWS V14.00,2013-03-16 13:03:00,
2013-03-16 08:12:00,58.9,55.0,29.86,SSW,195,5.0,11.0,87,0.00,,---,0.00,60.00,VWS V14.00,2013-03-16 13:12:00,
2013-03-16 08:20:00,59.1,55.2,29.86,South,180,11.0,12.0,87,0.00,,---,0.00,90.00,VWS V14.00,2013-03-16 13:20:00,
2013-03-16 08:28:00,59.4,55.2,29.86,SW,223,3.0,13.0,86,0.00,,---,0.00,139.00,VWS V14.00,2013-03-16 13:28:00,
2013-03-16 08:33:00,59.5,55.3,29.85,South,180,8.0,13.0,86,0.00,,---,0.00,163.00,VWS V14.00,2013-03-16 13:33:00,
2013-03-16 08:40:00,59.8,55.3,29.85,South,177,14.0,14.0,85,0.00,,---,0.00,174.00,VWS V14.00,2013-03-16 13:40:00,
2013-03-16 08:48:00,60.1,55.6,29.85,SSW,194,14.0,14.0,85,0.00,,---,0.00,81.00,VWS V14.00,2013-03-16 13:48:00,
2013-03-16 08:56:00,60.7,55.8,29.85,South,186,12.0,14.0,84,0.00,,---,0.00,236.00,VWS V14.00,2013-03-16 13:56:00,
2013-03-16 09:03:00,61.1,55.9,29.85,SW,217,6.0,18.0,83,0.00,,---,0.00,244.00,VWS V14.00,2013-03-16 14:03:00,
2013-03-16 09:12:00,61.6,56.1,29.85,South,180,6.0,18.0,82,0.00,,---,0.00,246.00,VWS V14.00,2013-03-16 14:12:00,
2013-03-16 09:20:00,62.1,56.2,29.85,SW,227,5.0,18.0,81,0.00,,---,0.00,320.00,VWS V14.00,2013-03-16 14:20:00,
2013-03-16 09:28:00,62.7,56.1,29.85,South,179,11.0,18.0,79,0.00,,---,0.00,357.00,VWS V14.00,2013-03-16 14:28:00,
2013-03-16 09:36:00,63.3,56.3,29.86,SSW,206,9.0,23.0,78,0.00,,---,0.00,394.00,VWS V14.00,2013-03-16 14:36:00,
2013-03-16 09:44:00,64.0,57.0,29.86,SSW,198,7.0,23.0,78,0.00,,---,0.00,411.00,VWS V14.00,2013-03-16 14:44:00,
2013-03-16 09:57:00,64.8,57.1,29.85,SE,144,10.0,23.0,76,0.00,,---,0.00,454.00,VWS V14.00,2013-03-16 14:57:00,
2013-03-16 10:03:00,65.2,57.1,29.86,SSW,203,9.0,23.0,75,0.00,,---,0.00,475.00,VWS V14.00,2013-03-16 15:03:00,
2013-03-16 10:09:00,65.4,56.9,29.86,SSW,192,10.0,14.0,74,0.00,,---,0.00,483.00,VWS V14.00,2013-03-16 15:09:00,
2013-03-16 10:17:00,66.1,57.2,29.86,SSW,212,7.0,17.0,73,0.00,,---,0.00,512.00,VWS V14.00,2013-03-16 15:17:00,
2013-03-16 10:25:00,66.8,57.1,29.86,SW,225,6.0,17.0,71,0.00,,---,0.00,541.00,VWS V14.00,2013-03-16 15:25:00,
2013-03-16 10:33:00,67.4,57.3,29.85,South,190,12.0,17.0,70,0.00,,---,0.00,568.00,VWS V14.00,2013-03-16 15:33:00,
2013-03-16 10:41:00,67.4,57.3,29.85,WSW,258,6.0,18.0,70,0.00,,---,0.00,589.00,VWS V14.00,2013-03-16 15:41:00,
2013-03-16 10:49:00,68.1,57.2,29.85,SSW,205,12.0,18.0,68,0.00,,---,0.00,608.00,VWS V14.00,2013-03-16 15:49:00,
2013-03-16 10:57:00,68.6,57.2,29.85,SW,220,14.0,18.0,67,0.00,,---,0.00,619.00,VWS V14.00,2013-03-16 15:57:00,
2013-03-16 11:03:00,69.9,57.6,29.86,West,279,5.0,18.0,65,0.00,,---,0.00,647.00,VWS V14.00,2013-03-16 16:03:00,
2013-03-16 11:09:00,70.0,57.3,29.86,South,180,10.0,14.0,64,0.00,,---,0.00,663.00,VWS V14.00,2013-03-16 16:09:00,
2013-03-16 11:17:00,69.5,57.2,29.85,South,173,12.0,20.0,65,0.00,,---,0.00,679.00,VWS V14.00,2013-03-16 16:17:00,
2013-03-16 11:25:00,70.4,57.2,29.85,South,187,13.0,20.0,63,0.00,,---,0.00,694.00,VWS V14.00,2013-03-16 16:25:00,
2013-03-16 11:33:00,71.2,57.5,29.84,South,181,7.0,20.0,62,0.00,,---,0.00,712.00,VWS V14.00,2013-03-16 16:33:00,
2013-03-16 11:42:00,71.3,57.2,29.84,South,183,10.0,18.0,61,0.00,,---,0.00,751.00,VWS V14.00,2013-03-16 16:42:00,
2013-03-16 11:50:00,71.5,57.8,29.83,South,175,9.0,18.0,62,0.00,,---,0.00,612.00,VWS V14.00,2013-03-16 16:50:00,
2013-03-16 11:58:00,71.3,57.2,29.83,SSW,200,6.0,18.0,61,0.00,,---,0.00,635.00,VWS V14.00,2013-03-16 16:58:00,
2013-03-16 12:03:00,72.4,57.8,29.83,South,182,5.0,18.0,60,0.00,,---,0.00,798.00,VWS V14.00,2013-03-16 17:03:00,
2013-03-16 12:10:00,72.6,57.0,29.83,South,188,11.0,16.0,58,0.00,,---,0.00,795.00,VWS V14.00,2013-03-16 17:10:00,
2013-03-16 12:18:00,73.1,57.0,29.82,SSW,192,18.0,19.0,57,0.00,,---,0.00,828.00,VWS V14.00,2013-03-16 17:18:00,
2013-03-16 12:26:00,73.7,58.5,29.82,South,186,16.0,19.0,59,0.00,,---,0.00,773.00,VWS V14.00,2013-03-16 17:26:00,
2013-03-16 12:33:00,73.5,57.3,29.82,South,177,6.0,19.0,57,0.00,,---,0.00,881.00,VWS V14.00,2013-03-16 17:33:00,
2013-03-16 12:46:00,74.0,56.8,29.82,SSW,192,9.0,20.0,55,0.00,,---,0.00,652.00,VWS V14.00,2013-03-16 17:46:00,
2013-03-16 12:54:00,73.2,58.0,29.83,South,187,13.0,20.0,59,0.00,,---,0.00,613.00,VWS V14.00,2013-03-16 17:54:00,
2013-03-16 13:02:00,72.5,56.9,29.82,South,190,10.0,21.0,58,0.00,,---,0.00,786.00,VWS V14.00,2013-03-16 18:02:00,
2013-03-16 13:10:00,73.8,57.6,29.82,SSW,194,10.0,18.0,57,0.00,,---,0.00,701.00,VWS V14.00,2013-03-16 18:10:00,
2013-03-16 13:18:00,74.5,57.3,29.81,SSW,207,9.0,18.0,55,0.00,,---,0.00,722.00,VWS V14.00,2013-03-16 18:18:00,
2013-03-16 13:26:00,74.8,58.1,29.81,SSW,201,15.0,18.0,56,0.00,,---,0.00,779.00,VWS V14.00,2013-03-16 18:26:00,
2013-03-16 13:33:00,75.1,57.3,29.81,SSW,192,9.0,18.0,54,0.00,,---,0.00,773.00,VWS V14.00,2013-03-16 18:33:00,
2013-03-16 13:39:00,74.2,57.0,29.81,South,172,13.0,18.0,55,0.00,,---,0.00,777.00,VWS V14.00,2013-03-16 18:39:00,
2013-03-16 13:47:00,74.8,57.6,29.81,SSW,197,8.0,18.0,55,0.00,,---,0.00,821.00,VWS V14.00,2013-03-16 18:47:00,
2013-03-16 13:55:00,74.7,58.5,29.80,SSE,167,8.0,18.0,57,0.00,,---,0.00,877.00,VWS V14.00,2013-03-16 18:55:00,
2013-03-16 14:03:00,76.2,58.4,29.79,South,173,8.0,18.0,54,0.00,,---,0.00,812.00,VWS V14.00,2013-03-16 19:03:00,
2013-03-16 14:11:00,75.5,57.7,29.79,South,176,16.0,17.0,54,0.00,,---,0.00,826.00,VWS V14.00,2013-03-16 19:11:00,
2013-03-16 14:19:00,75.5,58.2,29.78,South,178,6.0,20.0,55,0.00,,---,0.00,821.00,VWS V14.00,2013-03-16 19:19:00,
2013-03-16 14:27:00,76.2,58.9,29.78,South,186,11.0,20.0,55,0.00,,---,0.00,802.00,VWS V14.00,2013-03-16 19:27:00,
2013-03-16 14:33:00,76.3,58.5,29.77,South,176,11.0,20.0,54,0.00,,---,0.00,809.00,VWS V14.00,2013-03-16 19:33:00,
2013-03-16 14:39:00,76.5,58.1,29.77,SSE,165,13.0,13.0,53,0.00,,---,0.00,802.00,VWS V14.00,2013-03-16 19:39:00,
2013-03-16 14:47:00,77.8,58.2,29.77,SSE,163,12.0,14.0,51,0.00,,---,0.00,784.00,VWS V14.00,2013-03-16 19:47:00,
2013-03-16 14:55:00,77.0,58.0,29.76,SW,221,6.0,17.0,52,0.00,,---,0.00,788.00,VWS V14.00,2013-03-16 19:55:00,
2013-03-16 15:03:00,77.0,57.0,29.75,South,171,7.0,21.0,50,0.00,,---,0.00,775.00,VWS V14.00,2013-03-16 20:03:00,
2013-03-16 15:11:00,77.4,57.9,29.75,SSE,155,9.0,18.0,51,0.00,,---,0.00,686.00,VWS V14.00,2013-03-16 20:11:00,
2013-03-16 15:19:00,77.2,57.7,29.75,SSE,167,10.0,18.0,51,0.00,,---,0.00,765.00,VWS V14.00,2013-03-16 20:19:00,
2013-03-16 15:28:00,78.2,58.1,29.75,South,173,6.0,18.0,50,0.00,,---,0.00,575.00,VWS V14.00,2013-03-16 20:28:00,
2013-03-16 15:33:00,76.7,57.2,29.74,SSW,200,10.0,18.0,51,0.00,,---,0.00,749.00,VWS V14.00,2013-03-16 20:33:00,
2013-03-16 15:40:00,77.8,57.7,29.74,South,174,5.0,15.0,50,0.00,,---,0.00,656.00,VWS V14.00,2013-03-16 20:40:00,
2013-03-16 15:48:00,77.7,57.0,29.74,SSW,192,10.0,21.0,49,0.00,,---,0.00,589.00,VWS V14.00,2013-03-16 20:48:00,
2013-03-16 15:56:00,78.2,57.5,29.74,South,186,7.0,21.0,49,0.00,,---,0.00,622.00,VWS V14.00,2013-03-16 20:56:00,
2013-03-16 16:03:00,78.0,56.7,29.72,South,188,11.0,21.0,48,0.00,,---,0.00,529.00,VWS V14.00,2013-03-16 21:03:00,
2013-03-16 16:12:00,77.6,57.0,29.72,South,185,7.0,11.0,49,0.00,,---,0.00,446.00,VWS V14.00,2013-03-16 21:12:00,
2013-03-16 16:20:00,77.9,57.2,29.72,South,170,10.0,14.0,49,0.00,,---,0.00,396.00,VWS V14.00,2013-03-16 21:20:00,
2013-03-16 16:28:00,77.6,57.0,29.72,South,172,11.0,15.0,49,0.00,,---,0.00,336.00,VWS V14.00,2013-03-16 21:28:00,
2013-03-16 16:33:00,77.4,56.8,29.72,South,170,11.0,15.0,49,0.00,,---,0.00,512.00,VWS V14.00,2013-03-16 21:33:00,
2013-03-16 16:40:00,77.5,56.9,29.72,South,172,10.0,15.0,49,0.00,,---,0.00,431.00,VWS V14.00,2013-03-16 21:40:00,
2013-03-16 16:48:00,77.2,56.0,29.71,South,175,12.0,21.0,48,0.00,,---,0.00,325.00,VWS V14.00,2013-03-16 21:48:00,
2013-03-16 17:00:00,77.4,56.2,29.71,South,173,10.0,21.0,48,0.00,,---,0.00,459.00,VWS V14.00,2013-03-16 22:00:00,
2013-03-16 17:08:00,78.5,56.6,29.70,South,184,10.0,14.0,47,0.00,,---,0.00,373.00,VWS V14.00,2013-03-16 22:08:00,
2013-03-16 17:16:00,77.5,56.3,29.70,South,181,16.0,17.0,48,0.00,,---,0.00,355.00,VWS V14.00,2013-03-16 22:16:00,
2013-03-16 17:25:00,77.6,56.4,29.70,SSE,149,18.0,18.0,48,0.00,,---,0.00,265.00,VWS V14.00,2013-03-16 22:25:00,
2013-03-16 17:33:00,77.3,56.7,29.70,South,174,14.0,18.0,49,0.00,,---,0.00,200.00,VWS V14.00,2013-03-16 22:33:00,
2013-03-16 17:41:00,77.4,56.2,29.70,SSE,167,11.0,22.0,48,0.00,,---,0.00,301.00,VWS V14.00,2013-03-16 22:41:00,
2013-03-16 17:49:00,77.1,56.5,29.69,SSE,153,15.0,22.0,49,0.00,,---,0.00,316.00,VWS V14.00,2013-03-16 22:49:00,
2013-03-16 17:57:00,77.3,56.7,29.69,South,171,13.0,22.0,49,0.00,,---,0.00,267.00,VWS V14.00,2013-03-16 22:57:00,
2013-03-16 18:03:00,77.1,56.5,29.69,South,173,13.0,22.0,49,0.00,,---,0.00,202.00,VWS V14.00,2013-03-16 23:03:00,
2013-03-16 18:09:00,77.1,55.3,29.69,South,185,12.0,17.0,47,0.00,,---,0.00,146.00,VWS V14.00,2013-03-16 23:09:00,
2013-03-16 18:17:00,76.7,55.0,29.69,SSW,192,15.0,17.0,47,0.00,,---,0.00,84.00,VWS V14.00,2013-03-16 23:17:00,
2013-03-16 18:25:00,76.5,54.8,29.69,South,172,11.0,17.0,47,0.00,,---,0.00,102.00,VWS V14.00,2013-03-16 23:25:00,
2013-03-16 18:33:00,76.4,55.3,29.69,South,182,14.0,17.0,48,0.00,,---,0.00,107.00,VWS V14.00,2013-03-16 23:33:00,
2013-03-16 18:41:00,76.3,55.2,29.69,South,170,11.0,19.0,48,0.00,,---,0.00,81.00,VWS V14.00,2013-03-16 23:41:00,
2013-03-16 18:49:00,75.4,54.9,29.69,South,179,7.0,19.0,49,0.00,,---,0.00,53.00,VWS V14.00,2013-03-16 23:49:00,
2013-03-16 18:57:00,75.8,54.7,29.69,SSE,167,11.0,19.0,48,0.00,,---,0.00,42.00,VWS V14.00,2013-03-16 23:57:00,
2013-03-16 19:03:00,75.6,54.5,29.69,South,185,10.0,19.0,48,0.00,,---,0.00,21.00,VWS V14.00,2013-03-17 00:03:00,
2013-03-16 19:09:00,75.4,54.9,29.69,SSE,161,9.0,16.0,49,0.00,,---,0.00,14.00,VWS V14.00,2013-03-17 00:09:00,
2013-03-16 19:17:00,74.8,54.4,29.69,SSE,167,10.0,16.0,49,0.00,,---,0.00,9.00,VWS V14.00,2013-03-17 00:17:00,
2013-03-16 19:25:00,75.1,54.1,29.69,South,183,10.0,16.0,48,0.00,,---,0.00,5.00,VWS V14.00,2013-03-17 00:25:00,
2013-03-16 19:33:00,74.6,54.2,29.69,South,169,6.0,16.0,49,0.00,,---,0.00,0.00,VWS V14.00,2013-03-17 00:33:00,
2013-03-16 19:41:00,74.0,54.2,29.69,South,185,9.0,12.0,50,0.00,,---,0.00,0.00,VWS V14.00,2013-03-17 00:41:00,
2013-03-16 19:49:00,73.6,54.4,29.70,South,174,5.0,12.0,51,0.00,,---,0.00,0.00,VWS V14.00,2013-03-17 00:49:00,
2013-03-16 19:57:00,73.3,54.6,29.70,South,173,5.0,12.0,52,0.00,,---,0.00,0.00,VWS V14.00,2013-03-17 00:57:00,
2013-03-16 20:03:00,73.1,54.5,29.70,South,182,10.0,12.0,52,0.00,,---,0.00,0.00,VWS V14.00,2013-03-17 01:03:00,
2013-03-16 20:09:00,73.1,55.0,29.70,South,172,5.0,10.0,53,0.00,,---,0.00,0.00,VWS V14.00,2013-03-17 01:09:00,
2013-03-16 20:17:00,72.6,54.5,29.70,SSE,166,6.0,11.0,53,0.00,,---,0.00,0.00,VWS V14.00,2013-03-17 01:17:00,
2013-03-16 20:25:00,72.6,54.5,29.70,South,179,4.0,11.0,53,0.00,,---,0.00,0.00,VWS V14.00,2013-03-17 01:25:00,
2013-03-16 20:33:00,72.2,54.7,29.71,South,180,7.0,11.0,54,0.00,,---,0.00,0.00,VWS V14.00,2013-03-17 01:33:00,
2013-03-16 20:41:00,71.8,54.8,29.71,SSE,166,4.0,9.0,55,0.00,,---,0.00,0.00,VWS V14.00,2013-03-17 01:41:00,
2013-03-16 20:49:00,71.3,54.3,29.71,SSE,163,7.0,9.0,55,0.00,,---,0.00,0.00,VWS V14.00,2013-03-17 01:49:00,
2013-03-16 20:57:00,71.2,54.2,29.71,South,169,5.0,9.0,55,0.00,,---,0.00,0.00,VWS V14.00,2013-03-17 01:57:00,
2013-03-16 21:03:00,70.9,54.4,29.71,SSE,165,4.0,9.0,56,0.00,,---,0.00,0.00,VWS V14.00,2013-03-17 02:03:00,
2013-03-16 21:09:00,71.0,54.5,29.71,SSE,165,6.0,7.0,56,0.00,,---,0.00,0.00,VWS V14.00,2013-03-17 02:09:00,
2013-03-16 21:17:00,70.5,54.1,29.72,SSE,165,3.0,7.0,56,0.00,,---,0.00,0.00,VWS V14.00,2013-03-17 02:17:00,
2013-03-16 21:25:00,69.8,54.4,29.72,SSE,165,3.0,7.0,58,0.00,,---,0.00,0.00,VWS V14.00,2013-03-17 02:25:00,
2013-03-16 21:33:00,69.6,54.2,29.72,SSE,165,3.0,7.0,58,0.00,,---,0.00,0.00,VWS V14.00,2013-03-17 02:33:00,
2013-03-16 21:41:00,69.0,54.1,29.72,SSE,165,2.0,4.0,59,0.00,,---,0.00,0.00,VWS V14.00,2013-03-17 02:41:00,
2013-03-16 21:49:00,69.1,54.2,29.72,SSE,165,3.0,5.0,59,0.00,,---,0.00,0.00,VWS V14.00,2013-03-17 02:49:00,
2013-03-16 21:58:00,68.5,54.5,29.72,South,169,4.0,5.0,61,0.00,,---,0.00,0.00,VWS V14.00,2013-03-17 02:58:00,
2013-03-16 22:03:00,68.3,54.3,29.73,South,171,3.0,5.0,61,0.00,,---,0.00,0.00,VWS V14.00,2013-03-17 03:03:00,
2013-03-16 22:10:00,68.5,54.5,29.73,South,172,3.0,5.0,61,0.00,,---,0.00,0.00,VWS V14.00,2013-03-17 03:10:00,
2013-03-16 22:18:00,68.2,54.7,29.74,South,172,2.0,5.0,62,0.00,,---,0.00,0.00,VWS V14.00,2013-03-17 03:18:00,
2013-03-16 22:26:00,68.1,54.6,29.74,South,180,2.0,5.0,62,0.00,,---,0.00,0.00,VWS V14.00,2013-03-17 03:26:00,
2013-03-16 22:33:00,68.0,54.5,29.74,SSE,168,2.0,5.0,62,0.00,,---,0.00,0.00,VWS V14.00,2013-03-17 03:33:00,
2013-03-16 22:42:00,68.1,54.6,29.74,South,189,7.0,8.0,62,0.00,,---,0.00,0.00,VWS V14.00,2013-03-17 03:42:00,
2013-03-16 22:50:00,68.6,54.6,29.73,South,171,6.0,12.0,61,0.00,,---,0.00,0.00,VWS V14.00,2013-03-17 03:50:00,
2013-03-16 22:58:00,68.6,54.2,29.73,South,180,7.0,12.0,60,0.00,,---,0.00,0.00,VWS V14.00,2013-03-17 03:58:00,
2013-03-16 23:02:00,68.5,54.5,29.73,South,171,6.0,12.0,61,0.00,,---,0.00,0.00,VWS V14.00,2013-03-17 04:02:00,
2013-03-16 23:03:00,68.5,54.5,29.73,South,179,7.0,12.0,61,0.00,,---,0.00,0.00,VWS V14.00,2013-03-17 04:03:00,
2013-03-16 23:10:00,68.0,54.5,29.73,SSE,166,7.0,9.0,62,0.00,,---,0.00,0.00,VWS V14.00,2013-03-17 04:10:00,
2013-03-16 23:18:00,68.1,54.2,29.72,SSE,162,7.0,12.0,61,0.00,,---,0.00,0.00,VWS V14.00,2013-03-17 04:18:00,
2013-03-16 23:30:00,67.8,54.8,29.72,SSE,164,12.0,14.0,63,0.00,,---,0.00,0.00,VWS V14.00,2013-03-17 04:30:00,
2013-03-16 23:38:00,68.0,55.4,29.72,SSE,159,9.0,13.0,64,0.00,,---,0.00,0.00,VWS V14.00,2013-03-17 04:38:00,
2013-03-16 23:46:00,67.8,55.6,29.72,South,171,9.0,13.0,65,0.00,,---,0.00,0.00,VWS V14.00,2013-03-17 04:46:00,
2013-03-16 23:54:00,67.3,56.4,29.73,South,173,10.0,13.0,68,0.00,,---,0.00,0.00,VWS V14.00,2013-03-17 04:54:00,